Phuket, Thailand

8:21 AM +07 on June 21, 2018 (GMT +0700)
Phuket International

Weather History for VTSP - June, 2018

Change the Weather History Date:

Wednesday, June 20, 2018

  Actual Average Record
Temperature  
Mean Temperature 81 °F -  
Max Temperature 87 °F 88 °F 96 °F (2002)
Min Temperature 75 °F 78 °F 73 °F (1999)
Cooling Degree Days 16    
Growing Degree Days 31 (Base 50)    
Moisture  
Dew Point 74 °F    
Average Humidity 84    
Maximum Humidity 94    
Minimum Humidity 70    
Precipitation  
Precipitation 1.97 in 0.37 in - ()
Sea Level Pressure  
Sea Level Pressure 29.86 in    
Wind  
Wind Speed 7 mph ()    
Max Wind Speed 18 mph    
Max Gust Speed 29 mph    
Visibility 4.6 miles    
Events Rain    
Averages and records for this station are not official NWS values.
T = Trace of Precipitation, MM = Missing Value Source: Averaged Metar Reports

Daily Weather History Graph

Daily Weather History Graph

Search for Another Location

Airport or City:

Astronomy

Jun. 20, 2018 Rise Set
Actual Time 6:10 AM +07 6:46 PM +07
Civil Twilight 5:47 AM +07 7:09 PM +07
Nautical Twilight 5:20 AM +07 7:35 PM +07
Astronomical Twilight 4:53 AM +07 8:03 PM +07
Moon 12:21 PM +07 (6/20) 12:03 AM +07 (6/20)
Length of Visible Light 13h 21m
Length of Day
12h 35m
Waxing Crescent, 47% of the Moon is Illuminated
Jun 20
Waxing Crescent
Jun 20
First Quarter
Jun 28
Full
Jul 6
Last Quarter
Jul 13
New

Hourly Weather History & Observations

Time (+07) Temp. Heat Index Dew Point Humidity Pressure Visibility Wind Dir Wind Speed Gust Speed Precip Events Conditions
12:00 AM 80.6 °F 85.4 °F 73.4 °F 79% 29.83 in 5.0 mi West 15.0 mph - N/A Rain Light Rain
12:30 AM 80.6 °F 85.4 °F 73.4 °F 79% 29.83 in 5.0 mi West 15.0 mph - N/A Rain Light Rain
1:00 AM 82 °F - 77 °F 79% 29.77 in 4 mi West 4.6 mph - - Rain Light Rain
1:00 AM 80.6 °F 85.4 °F 73.4 °F 79% 29.83 in 5.0 mi West 18.4 mph - N/A   Mostly Cloudy
1:30 AM 80.6 °F 85.4 °F 73.4 °F 79% 29.83 in 5.0 mi West 16.1 mph - N/A   Mostly Cloudy
2:00 AM 82.4 °F 88.2 °F 73.4 °F 74% 29.86 in 5.0 mi WSW 13.8 mph - N/A   Mostly Cloudy
2:30 AM 80.6 °F 85.4 °F 73.4 °F 79% 29.86 in 5.0 mi WSW 9.2 mph - N/A   Mostly Cloudy
3:00 AM 82.4 °F 88.2 °F 73.4 °F 74% 29.83 in 5.0 mi WSW 6.9 mph - N/A   Mostly Cloudy
4:00 AM 83 °F - 77 °F 78% 29.77 in 5 mi West 4.6 mph - -   Mist
4:00 AM 80.6 °F 85.4 °F 73.4 °F 79% 29.83 in 5.0 mi WSW 5.8 mph - N/A   Mostly Cloudy
4:30 AM 80.6 °F 85.4 °F 73.4 °F 79% 29.83 in 5.0 mi WSW 4.6 mph - N/A   Mostly Cloudy
5:00 AM 80.6 °F 85.4 °F 73.4 °F 79% 29.83 in 5.0 mi SW 4.6 mph - N/A   Mostly Cloudy
5:30 AM 80.6 °F 85.4 °F 73.4 °F 79% 29.83 in 5.0 mi Variable 3.5 mph - N/A   Mostly Cloudy
6:00 AM 80.6 °F 85.4 °F 73.4 °F 79% 29.86 in 5.0 mi Variable 2.3 mph - N/A   Scattered Clouds
6:30 AM 78.8 °F - 75.2 °F 89% 29.86 in 5.6 mi Variable 2.3 mph - N/A   Scattered Clouds
7:00 AM 79 °F - 73 °F 78% 29.81 in 3 mi Calm Calm - - Rain Light Rain
7:00 AM 75.2 °F - 71.6 °F 89% 29.86 in 4.3 mi WNW 9.2 mph - N/A Rain Light Rain
7:30 AM 77.0 °F - 71.6 °F 83% 29.89 in 4.3 mi Calm Calm - N/A Rain Light Rain
8:00 AM 77.0 °F - 73.4 °F 89% 29.89 in 5.0 mi Calm Calm - N/A Rain Light Rain
8:30 AM 77.0 °F - 73.4 °F 89% 29.89 in 5.0 mi East 3.5 mph - N/A Rain Light Rain
9:00 AM 77.0 °F - 73.4 °F 89% 29.89 in 5.0 mi Calm Calm - N/A Rain Light Rain
9:30 AM 77.0 °F - 73.4 °F 89% 29.89 in 5.0 mi Calm Calm - N/A Rain Light Rain
10:00 AM 80 °F - 78 °F 93% 29.83 in 6 mi Calm Calm - -   Partly Cloudy
10:00 AM 78.8 °F - 75.2 °F 89% 29.89 in 5.6 mi Calm Calm - N/A   Mostly Cloudy
10:30 AM 84.2 °F 94.1 °F 77.0 °F 79% 29.89 in 5.6 mi Calm Calm - N/A   Mostly Cloudy
11:00 AM 86.0 °F 96.9 °F 77.0 °F 74% 29.89 in 5.6 mi WSW 10.4 mph - N/A   Mostly Cloudy
11:30 AM 87.8 °F 99.7 °F 77.0 °F 70% 29.89 in 5.6 mi West 13.8 mph - N/A   Mostly Cloudy
12:00 PM 80.6 °F 85.4 °F 73.4 °F 79% 29.89 in 1.9 mi Variable 13.8 mph 28.8 mph N/A Rain Rain
12:30 PM 78.8 °F - 73.4 °F 83% 29.89 in 5.0 mi WNW 13.8 mph - N/A   Mostly Cloudy
1:00 PM 80 °F - 76 °F 83% 29.82 in 5 mi Calm Calm - - Rain Light Rain
1:00 PM 78.8 °F - 75.2 °F 89% 29.86 in 4.3 mi Variable 3.5 mph - N/A Rain Light Rain
1:30 PM 78.8 °F - 75.2 °F 89% 29.86 in 5.0 mi SW 3.5 mph - N/A   Mostly Cloudy
2:00 PM 78.8 °F - 73.4 °F 83% 29.86 in 4.3 mi SW 5.8 mph - N/A Rain Light Rain
2:30 PM 78.8 °F - 73.4 °F 83% 29.86 in 4.3 mi SW 5.8 mph - N/A Rain Light Rain
3:00 PM 77.0 °F - 71.6 °F 83% 29.86 in 1.9 mi SW 8.1 mph - N/A Rain Rain
3:30 PM 77.0 °F - 73.4 °F 89% 29.86 in 4.3 mi SW 4.6 mph - N/A Rain Light Rain
4:00 PM 79 °F - 76 °F 90% 29.80 in 6 mi Calm Calm - - Rain Light Rain
4:00 PM 78.8 °F - 73.4 °F 83% 29.83 in 5.0 mi WSW 4.6 mph - N/A Rain Light Rain
4:30 PM 78.8 °F - 75.2 °F 89% 29.86 in 5.0 mi Variable 2.3 mph - N/A Rain Light Rain
5:00 PM 78.8 °F - 75.2 °F 89% 29.86 in 5.0 mi Variable 2.3 mph - N/A Rain Light Rain
5:30 PM 77.0 °F - 75.2 °F 94% 29.86 in 3.7 mi NW 12.7 mph 26.5 mph N/A Rain Light Rain
6:00 PM 77.0 °F - 73.4 °F 89% 29.86 in 1.9 mi WNW 15.0 mph 26.5 mph N/A Rain Rain
6:30 PM 77.0 °F - 73.4 °F 89% 29.89 in 0.9 mi WNW 8.1 mph - N/A Rain Heavy Rain
7:00 PM 75.2 °F - 73.4 °F 94% 29.89 in 1.9 mi West 15.0 mph - N/A Rain Rain
7:30 PM 77.0 °F - 73.4 °F 89% 29.89 in 4.3 mi West 12.7 mph - N/A Rain Light Rain
8:00 PM 77.0 °F - 73.4 °F 89% 29.89 in 5.0 mi West 8.1 mph - N/A Rain Light Rain
8:30 PM 77.0 °F - 71.6 °F 83% 29.89 in 5.0 mi WNW 5.8 mph - N/A   Mostly Cloudy
9:00 PM 77.0 °F - 71.6 °F 83% 29.92 in 5.0 mi WNW 4.6 mph - N/A   Mostly Cloudy
9:30 PM 77.0 °F - 73.4 °F 89% 29.92 in 5.0 mi WNW 5.8 mph - N/A   Mostly Cloudy
10:00 PM 79 °F - 76 °F 88% 29.84 in 6 mi Calm Calm - -   Partly Cloudy
10:00 PM 78.8 °F - 73.4 °F 83% 29.92 in 5.0 mi West 6.9 mph - N/A   Mostly Cloudy
10:30 PM 77.0 °F - 73.4 °F 89% 29.92 in 5.0 mi Calm Calm - N/A   Mostly Cloudy
11:00 PM 77.0 °F - 73.4 °F 89% 29.92 in 5.0 mi Variable 2.3 mph - N/A   Mostly Cloudy
11:30 PM 77.0 °F - 73.4 °F 89% 29.92 in 5.0 mi Variable 2.3 mph - N/A   Mostly Cloudy